Location: Kellogg
(38.0159°N, 90.0546°W)
Time: 08:37:15
(UTC+00:00)

Vanguard 1 Rocket - Pass Details

Date: 16 September 2024
Orbit: 650 x 4218 km, 34.3° (Epoch: 09 October)

Event Time Altitude Azimuth Distance (km) Brightness Sun altitude
Rises 11:21:15 0° 263° (W) 5,959 - -5.2°
Exits shadow 11:22:56 - 262° (W) 5,612 10.7 -4.8°
Reaches altitude 10° 11:24:27 10° 262° (W) 5,316 10.6 -4.5°
Maximum altitude 11:42:31 80° 179° (S) 3,818 10.6 -1.0°
Drops below altitude 10° 12:09:08 10° 97° (E) 7,317 14.5 4.2°
Sets 12:14:30 0° 97° (E) 8,168 14.9 5.3°
